[ hide orbit diagram ]
For accurate long-term ephemerides, please instead use our Horizons system.This orbit viewer was implemented using two-body methods, and hence should not be used for determining accurate long-term trajectories (over several years or decades) or planetary encounter circumstances.
Orbital Elements at Epoch 2459000.5 (2020-May-31.0) TDB
Reference: JPL 17 (heliocentric ecliptic J2000)
Element | Value | Uncertainty (1-sigma) | Units |
e | .2210872386301405 | 4.1914e-08 | |
a | 2.349274995904155 | 1.0117e-08 | au |
q | 1.829880274276871 | 1.007e-07 | au |
i | 3.599483023317692 | 4.1135e-06 | deg |
node | 60.51993936311735 | 7.4914e-05 | deg |
peri | 329.6877669260693 | 7.5492e-05 | deg |
M | 182.7023099862897 | 1.1165e-05 | deg |
tp | 2459648.238614416132 (2022-Mar-09.73861442) | 4.3646e-05 | TDB |
period | 1315.222444081337 3.60 | 8.4959e-06 2.326e-08 | d yr |
n | .2737179567000581 | 1.7681e-09 | deg/d |
Q | 2.868669717531439 | 1.2354e-08 | au |
|
| | Orbit Determination Parameters
Additional Information
|
[ hide covariance matrix ]
Orbital Elements at Epoch 2457035.5 (2015-Jan-13.0) TDB
Reference: JPL 17 (heliocentric ecliptic J2000)
Element | Value | Uncertainty (1-sigma) | Units |
e | .2194609697065942 | 4.1769e-08 | |
q | 1.834475511700126 | 1.0026e-07 | au |
tp | 2457015.831075487366 (2014-Dec-24.33107549) | 3.4447e-05 | TDB |
node | 60.59869920009536 | 7.498e-05 | deg |
peri | 329.4466786904853 | 7.5574e-05 | deg |
i | 3.597378573279972 | 4.1081e-06 | deg |
|
| | Orbit Determination Parameters
Additional Information
|
Orbit Covariance (6×6)
|
|
e |
q |
tp |
node |
peri |
i |
e |
1.74468313123915E-15 |
-4.175402749673987E-15 |
-6.152465206918176E-13 |
-2.107597187430521E-15 |
-1.758493691857781E-13 |
-2.226979075450466E-15 |
q |
-4.175402749673987E-15 |
1.005176753826289E-14 |
1.556061581294984E-12 |
4.83404337273952E-15 |
4.420150857890108E-13 |
5.51995144561865E-15 |
tp |
-6.152465206918176E-13 |
1.556061581294984E-12 |
1.186589798424063E-9 |
4.523740085776434E-12 |
3.505874161528474E-10 |
1.590574520783092E-12 |
node |
-2.107597187430521E-15 |
4.83404337273952E-15 |
4.523740085776434E-12 |
5.622043499171848E-9 |
-5.609106373427379E-9 |
-1.190783795983178E-10 |
peri |
-1.758493691857781E-13 |
4.420150857890108E-13 |
3.505874161528474E-10 |
-5.609106373427379E-9 |
5.711485939477785E-9 |
1.192794545824819E-10 |
i |
-2.226979075450466E-15 |
5.51995144561865E-15 |
1.590574520783092E-12 |
-1.190783795983178E-10 |
1.192794545824819E-10 |
1.687668148519434E-11 |
|
Physical Parameter Table
Parameter |
Symbol |
Value |
Units |
Sigma |
Reference |
Notes |
absolute magnitude |
H |
16.48 |
|
n/a |
E2021B55 |
|
|
117968 (9564 P-L) Discovered 1960-Oct-17 by van Houten, C. J., van Houten-Groeneveld, I., Gehrels, T. at Palomar |
Reference: 20051019/Numbers.arc | Last Updated: 2005-10-26 |
|
[ show close-approach data ]
|